{"data":{"norad_id":63381,"intl_designator":"2025-063U","name":"STARLINK-33643","alt_names":[],"object_type":"PAYLOAD","status":"ACTIVE","operator":null,"country":"US","launch_date":"2025-03-26","launch_site_code":"AFWTR","launch_vehicle":null,"mission":null,"orbit_class":"UNKNOWN","rcs_meters":null,"size_class":null,"mass_kg":null,"dimensions":null,"purposes":["comms"],"wikipedia_slug":null,"has_3d_model":false,"image_url":null,"decayed_at":null,"tle_current":{"epoch":"2026-09-20T05:16:38.384544Z","epoch_age_seconds":183099,"freshness":"STALE","line1":"1 63381U 25063U   26263.21988871  .00015465  00000+0  46778-3 0  9995","line2":"2 63381  53.1590 226.7111 0001592  74.0320 286.0858 15.34408690 84570","mean_motion":15.3440869,"eccentricity":0.0001592,"inclination_deg":53.159,"raan_deg":226.7111,"arg_perigee_deg":74.032,"mean_anomaly_deg":286.0858,"bstar":0.00046778,"rev_number":8457,"period_min":93.847226582117,"perigee_km":461.58835416331,"apogee_km":463.76646947203,"semimajor_km":6840.8144118177,"source":"CELESTRAK","updated_at":"2026-09-21T09:00:34.975836Z"}}}